﻿測定場所 (Monitoring sites),日付 (Measurement date),時間 (Measurement time),線量率 最大値 (max) μGy/h,線量率 最小値 (min) μGy/h,線量率 平均値 (average) μGy/h,
足立 (Adachi),2021-04-18,23:01～24:00,0.0318,0.0274,0.0293,
足立 (Adachi),2021-04-18,22:01～23:00,0.0307,0.0276,0.0292,
足立 (Adachi),2021-04-18,21:01～22:00,0.0309,0.0275,0.0293,
足立 (Adachi),2021-04-18,20:01～21:00,0.0313,0.0266,0.0290,
足立 (Adachi),2021-04-18,19:01～20:00,0.0316,0.0266,0.0288,
足立 (Adachi),2021-04-18,18:01～19:00,0.0303,0.0267,0.0288,
足立 (Adachi),2021-04-18,17:01～18:00,0.0316,0.0270,0.0289,
足立 (Adachi),2021-04-18,16:01～17:00,0.0312,0.0271,0.0291,
足立 (Adachi),2021-04-18,15:01～16:00,0.0308,0.0266,0.0287,
足立 (Adachi),2021-04-18,14:01～15:00,0.0304,0.0271,0.0292,
足立 (Adachi),2021-04-18,13:01～14:00,0.0312,0.0271,0.0289,
足立 (Adachi),2021-04-18,12:01～13:00,0.0313,0.0266,0.0288,
足立 (Adachi),2021-04-18,11:01～12:00,0.0304,0.0263,0.0285,
足立 (Adachi),2021-04-18,10:01～11:00,0.0304,0.0271,0.0287,
足立 (Adachi),2021-04-18,09:01～10:00,0.0307,0.0269,0.0289,
足立 (Adachi),2021-04-18,08:01～09:00,0.0305,0.0265,0.0290,
足立 (Adachi),2021-04-18,07:01～08:00,0.0304,0.0261,0.0287,
足立 (Adachi),2021-04-18,06:01～07:00,0.0306,0.0260,0.0287,
足立 (Adachi),2021-04-18,05:01～06:00,0.0305,0.0262,0.0284,
足立 (Adachi),2021-04-18,04:01～05:00,0.0315,0.0272,0.0286,
足立 (Adachi),2021-04-18,03:01～04:00,0.0313,0.0271,0.0286,
足立 (Adachi),2021-04-18,02:01～03:00,0.0336,0.0281,0.0309,
足立 (Adachi),2021-04-18,01:01～02:00,0.0427,0.0322,0.0366,
足立 (Adachi),2021-04-18,00:01～01:00,0.0467,0.0389,0.0425,
足立 (Adachi),2021-04-17,23:01～24:00,0.0449,0.0370,0.0407,
足立 (Adachi),2021-04-17,22:01～23:00,0.0401,0.0332,0.0369,
足立 (Adachi),2021-04-17,21:01～22:00,0.0357,0.0323,0.0340,
足立 (Adachi),2021-04-17,20:01～21:00,0.0351,0.0305,0.0331,
足立 (Adachi),2021-04-17,19:01～20:00,0.0344,0.0302,0.0321,
足立 (Adachi),2021-04-17,18:01～19:00,0.0352,0.0284,0.0326,
足立 (Adachi),2021-04-17,17:01～18:00,0.0370,0.0324,0.0345,
足立 (Adachi),2021-04-17,16:01～17:00,0.0352,0.0306,0.0325,
足立 (Adachi),2021-04-17,15:01～16:00,0.0323,0.0276,0.0296,
足立 (Adachi),2021-04-17,14:01～15:00,0.0318,0.0264,0.0287,
足立 (Adachi),2021-04-17,13:01～14:00,0.0305,0.0266,0.0287,
足立 (Adachi),2021-04-17,12:01～13:00,0.0304,0.0261,0.0283,
足立 (Adachi),2021-04-17,11:01～12:00,0.0304,0.0264,0.0283,
足立 (Adachi),2021-04-17,10:01～11:00,0.0312,0.0264,0.0287,
足立 (Adachi),2021-04-17,09:01～10:00,0.0301,0.0269,0.0287,
足立 (Adachi),2021-04-17,08:01～09:00,0.0305,0.0269,0.0288,
足立 (Adachi),2021-04-17,07:01～08:00,0.0309,0.0261,0.0285,
足立 (Adachi),2021-04-17,06:01～07:00,0.0307,0.0267,0.0285,
足立 (Adachi),2021-04-17,05:01～06:00,0.0305,0.0265,0.0286,
足立 (Adachi),2021-04-17,04:01～05:00,0.0303,0.0270,0.0285,
足立 (Adachi),2021-04-17,03:01～04:00,0.0303,0.0269,0.0287,
足立 (Adachi),2021-04-17,02:01～03:00,0.0303,0.0268,0.0287,
足立 (Adachi),2021-04-17,01:01～02:00,0.0305,0.0266,0.0286,
足立 (Adachi),2021-04-17,00:01～01:00,0.0311,0.0267,0.0286,
足立 (Adachi),2021-04-16,23:01～24:00,0.0305,0.0268,0.0287,
足立 (Adachi),2021-04-16,22:01～23:00,0.0307,0.0263,0.0286,
足立 (Adachi),2021-04-16,21:01～22:00,0.0300,0.0268,0.0288,
足立 (Adachi),2021-04-16,20:01～21:00,0.0301,0.0263,0.0282,
足立 (Adachi),2021-04-16,19:01～20:00,0.0303,0.0263,0.0282,
足立 (Adachi),2021-04-16,18:01～19:00,0.0296,0.0270,0.0283,
足立 (Adachi),2021-04-16,17:01～18:00,0.0299,0.0261,0.0280,
足立 (Adachi),2021-04-16,16:01～17:00,0.0309,0.0255,0.0279,
足立 (Adachi),2021-04-16,15:01～16:00,0.0300,0.0265,0.0282,
足立 (Adachi),2021-04-16,14:01～15:00,0.0304,0.0260,0.0282,
足立 (Adachi),2021-04-16,13:01～14:00,0.0304,0.0268,0.0285,
足立 (Adachi),2021-04-16,12:01～13:00,0.0302,0.0271,0.0284,
足立 (Adachi),2021-04-16,11:01～12:00,0.0301,0.0265,0.0287,
足立 (Adachi),2021-04-16,10:01～11:00,0.0310,0.0271,0.0291,
足立 (Adachi),2021-04-16,09:01～10:00,0.0311,0.0277,0.0292,
足立 (Adachi),2021-04-16,08:01～09:00,0.0308,0.0270,0.0289,
足立 (Adachi),2021-04-16,07:01～08:00,0.0312,0.0268,0.0292,
足立 (Adachi),2021-04-16,06:01～07:00,0.0310,0.0262,0.0293,
足立 (Adachi),2021-04-16,05:01～06:00,0.0305,0.0277,0.0292,
足立 (Adachi),2021-04-16,04:01～05:00,0.0310,0.0266,0.0287,
足立 (Adachi),2021-04-16,03:01～04:00,0.0304,0.0271,0.0287,
足立 (Adachi),2021-04-16,02:01～03:00,0.0309,0.0264,0.0285,
足立 (Adachi),2021-04-16,01:01～02:00,0.0306,0.0263,0.0285,
足立 (Adachi),2021-04-16,00:01～01:00,0.0306,0.0265,0.0284,
足立 (Adachi),2021-04-15,23:01～24:00,0.0313,0.0270,0.0286,
足立 (Adachi),2021-04-15,22:01～23:00,0.0306,0.0264,0.0284,
足立 (Adachi),2021-04-15,21:01～22:00,0.0301,0.0271,0.0286,
足立 (Adachi),2021-04-15,20:01～21:00,0.0304,0.0265,0.0284,
足立 (Adachi),2021-04-15,19:01～20:00,0.0307,0.0262,0.0284,
足立 (Adachi),2021-04-15,18:01～19:00,0.0301,0.0255,0.0284,
足立 (Adachi),2021-04-15,17:01～18:00,0.0309,0.0264,0.0284,
足立 (Adachi),2021-04-15,16:01～17:00,0.0307,0.0270,0.0285,
足立 (Adachi),2021-04-15,15:01～16:00,0.0304,0.0271,0.0287,
足立 (Adachi),2021-04-15,14:01～15:00,0.0303,0.0264,0.0285,
足立 (Adachi),2021-04-15,13:01～14:00,0.0310,0.0260,0.0284,
足立 (Adachi),2021-04-15,12:01～13:00,0.0307,0.0263,0.0286,
足立 (Adachi),2021-04-15,11:01～12:00,0.0308,0.0270,0.0289,
足立 (Adachi),2021-04-15,10:01～11:00,0.0314,0.0273,0.0290,
足立 (Adachi),2021-04-15,09:01～10:00,0.0302,0.0269,0.0286,
足立 (Adachi),2021-04-15,08:01～09:00,0.0305,0.0274,0.0286,
足立 (Adachi),2021-04-15,07:01～08:00,0.0299,0.0263,0.0282,
足立 (Adachi),2021-04-15,06:01～07:00,0.0296,0.0260,0.0281,
足立 (Adachi),2021-04-15,05:01～06:00,0.0301,0.0264,0.0282,
足立 (Adachi),2021-04-15,04:01～05:00,0.0298,0.0268,0.0282,
足立 (Adachi),2021-04-15,03:01～04:00,0.0305,0.0265,0.0285,
足立 (Adachi),2021-04-15,02:01～03:00,0.0299,0.0258,0.0284,
足立 (Adachi),2021-04-15,01:01～02:00,0.0306,0.0277,0.0290,
足立 (Adachi),2021-04-15,00:01～01:00,0.0339,0.0280,0.0307,
足立 (Adachi),2021-04-14,23:01～24:00,0.0413,0.0317,0.0357,
足立 (Adachi),2021-04-14,22:01～23:00,0.0527,0.0394,0.0465,
足立 (Adachi),2021-04-14,21:01～22:00,0.0549,0.0472,0.0508,
足立 (Adachi),2021-04-14,20:01～21:00,0.0546,0.0408,0.0480,
足立 (Adachi),2021-04-14,19:01～20:00,0.0511,0.0418,0.0455,
足立 (Adachi),2021-04-14,18:01～19:00,0.0515,0.0322,0.0409,
足立 (Adachi),2021-04-14,17:01～18:00,0.0371,0.0322,0.0342,
足立 (Adachi),2021-04-14,16:01～17:00,0.0350,0.0286,0.0309,
足立 (Adachi),2021-04-14,15:01～16:00,0.0327,0.0284,0.0303,
足立 (Adachi),2021-04-14,14:01～15:00,0.0350,0.0292,0.0316,
足立 (Adachi),2021-04-14,13:01～14:00,0.0382,0.0325,0.0348,
足立 (Adachi),2021-04-14,12:01～13:00,0.0395,0.0347,0.0366,
足立 (Adachi),2021-04-14,11:01～12:00,0.0397,0.0323,0.0360,
足立 (Adachi),2021-04-14,10:01～11:00,0.0377,0.0334,0.0354,
足立 (Adachi),2021-04-14,09:01～10:00,0.0391,0.0335,0.0359,
足立 (Adachi),2021-04-14,08:01～09:00,0.0400,0.0343,0.0366,
足立 (Adachi),2021-04-14,07:01～08:00,0.0399,0.0327,0.0357,
足立 (Adachi),2021-04-14,06:01～07:00,0.0356,0.0306,0.0331,
足立 (Adachi),2021-04-14,05:01～06:00,0.0321,0.0271,0.0299,
足立 (Adachi),2021-04-14,04:01～05:00,0.0312,0.0272,0.0292,
足立 (Adachi),2021-04-14,03:01～04:00,0.0314,0.0269,0.0293,
足立 (Adachi),2021-04-14,02:01～03:00,0.0309,0.0277,0.0294,
足立 (Adachi),2021-04-14,01:01～02:00,0.0313,0.0273,0.0295,
足立 (Adachi),2021-04-14,00:01～01:00,0.0318,0.0276,0.0297,
足立 (Adachi),2021-04-13,23:01～24:00,0.0319,0.0284,0.0299,
足立 (Adachi),2021-04-13,22:01～23:00,0.0320,0.0276,0.0299,
足立 (Adachi),2021-04-13,21:01～22:00,0.0308,0.0280,0.0293,
足立 (Adachi),2021-04-13,20:01～21:00,0.0315,0.0279,0.0294,
足立 (Adachi),2021-04-13,19:01～20:00,0.0322,0.0278,0.0295,
足立 (Adachi),2021-04-13,18:01～19:00,0.0310,0.0273,0.0291,
足立 (Adachi),2021-04-13,17:01～18:00,0.0311,0.0270,0.0289,
足立 (Adachi),2021-04-13,16:01～17:00,0.0315,0.0277,0.0293,
足立 (Adachi),2021-04-13,15:01～16:00,0.0305,0.0269,0.0290,
足立 (Adachi),2021-04-13,14:01～15:00,0.0318,0.0271,0.0290,
足立 (Adachi),2021-04-13,13:01～14:00,0.0305,0.0275,0.0290,
足立 (Adachi),2021-04-13,12:01～13:00,0.0315,0.0273,0.0292,
足立 (Adachi),2021-04-13,11:01～12:00,0.0311,0.0276,0.0294,
足立 (Adachi),2021-04-13,10:01～11:00,0.0315,0.0277,0.0299,
足立 (Adachi),2021-04-13,09:01～10:00,0.0332,0.0270,0.0303,
足立 (Adachi),2021-04-13,08:01～09:00,0.0320,0.0273,0.0294,
足立 (Adachi),2021-04-13,07:01～08:00,0.0312,0.0273,0.0293,
足立 (Adachi),2021-04-13,06:01～07:00,0.0307,0.0274,0.0290,
足立 (Adachi),2021-04-13,05:01～06:00,0.0307,0.0269,0.0290,
足立 (Adachi),2021-04-13,04:01～05:00,0.0311,0.0275,0.0291,
足立 (Adachi),2021-04-13,03:01～04:00,0.0309,0.0269,0.0290,
足立 (Adachi),2021-04-13,02:01～03:00,0.0316,0.0275,0.0293,
足立 (Adachi),2021-04-13,01:01～02:00,0.0317,0.0273,0.0294,
足立 (Adachi),2021-04-13,00:01～01:00,0.0312,0.0275,0.0292,
足立 (Adachi),2021-04-12,23:01～24:00,0.0313,0.0275,0.0293,
足立 (Adachi),2021-04-12,22:01～23:00,0.0323,0.0276,0.0294,
足立 (Adachi),2021-04-12,21:01～22:00,0.0311,0.0274,0.0292,
足立 (Adachi),2021-04-12,20:01～21:00,0.0311,0.0275,0.0291,
足立 (Adachi),2021-04-12,19:01～20:00,0.0314,0.0269,0.0288,
足立 (Adachi),2021-04-12,18:01～19:00,0.0307,0.0271,0.0288,
足立 (Adachi),2021-04-12,17:01～18:00,0.0302,0.0267,0.0288,
足立 (Adachi),2021-04-12,16:01～17:00,0.0323,0.0268,0.0287,
足立 (Adachi),2021-04-12,15:01～16:00,0.0321,0.0273,0.0291,
足立 (Adachi),2021-04-12,14:01～15:00,0.0308,0.0265,0.0288,
足立 (Adachi),2021-04-12,13:01～14:00,0.0307,0.0273,0.0291,
足立 (Adachi),2021-04-12,12:01～13:00,0.0304,0.0269,0.0290,
足立 (Adachi),2021-04-12,11:01～12:00,0.0309,0.0270,0.0289,
足立 (Adachi),2021-04-12,10:01～11:00,0.0315,0.0264,0.0293,
足立 (Adachi),2021-04-12,09:01～10:00,0.0317,0.0265,0.0292,
足立 (Adachi),2021-04-12,08:01～09:00,0.0312,0.0274,0.0293,
足立 (Adachi),2021-04-12,07:01～08:00,0.0329,0.0273,0.0293,
足立 (Adachi),2021-04-12,06:01～07:00,0.0313,0.0276,0.0291,
足立 (Adachi),2021-04-12,05:01～06:00,0.0317,0.0271,0.0293,
足立 (Adachi),2021-04-12,04:01～05:00,0.0316,0.0276,0.0294,
足立 (Adachi),2021-04-12,03:01～04:00,0.0314,0.0279,0.0295,
足立 (Adachi),2021-04-12,02:01～03:00,0.0305,0.0278,0.0292,
足立 (Adachi),2021-04-12,01:01～02:00,0.0308,0.0274,0.0292,
足立 (Adachi),2021-04-12,00:01～01:00,0.0307,0.0272,0.0292,
